Miscellaneous Local Product
Issued by NWS Hastings, NE

Home | Current Version | Previous Version | Graphics & Text | Print | Product List | Glossary On
Versions: 1 2 3 4 5 6 7 8 9 10 11 12 13 14 15 16 17 18 19 20 21 22 23 24 25 26 27 28 29 30 31 32 33 34 35 36 37 38 39 40 41 42 43 44 45 46 47 48 49 50
107
AXUS43 KGID 130002
MISGRI

GID CWA HOURLY WEATHER ROUNDUP
NATIONAL WEATHER SERVICE HASTINGS NE
600 PM CST FRI FEB 12 2016

NOTE: "FAIR" INDICATES FEW OR NO CLOUDS BELOW 12,000 FEET WITH NO
SIGNIFICANT WEATHER AND/OR OBSTRUCTIONS TO VISIBILITY.

...SOUTH CENTRAL NEBRASKA...

CITY           SKY/WX    TMP DP  RH WIND       PRES   REMARKS
GRAND ISLAND   CLOUDY    22  14  71 NE13      30.52R WCI  10
HASTINGS       CLOUDY    24  14  65 NE10      30.49S WCI  14
KEARNEY        CLOUDY    25  18  74 E10       30.49R WCI  15
ORD            CLOUDY    23  15  71 NE9       30.49S WCI  13
YORK           PTCLDY    19  14  79 N9        30.54R WCI   9
AURORA         CLOUDY    22  15  76 NE13      30.51S WCI  10
LEXINGTON      CLOUDY    28  24  85 E13       30.46S WCI  17
HOLDREGE       CLOUDY    26  24  91 NE12      30.47R WCI  16
HEBRON         CLOUDY    26  17  69 NE10      30.53R WCI  16

...NEBRASKA PANHANDLE...

CITY           SKY/WX    TMP DP  RH WIND       PRES   REMARKS
CHADRON        CLOUDY    36  28  73 SE10      30.32R WCI  28
ALLIANCE       CLOUDY    34  29  82 SE9       30.29F WCI  27
SCOTTSBLUFF    CLOUDY    35  31  85 SE15      30.29S WCI  25
SIDNEY         FOG       31  30  96 SE15      30.30F VSB 1/4 WCI  20

...WESTERN AND NORTH CENTRAL NEBRASKA...

CITY           SKY/WX    TMP DP  RH WIND       PRES   REMARKS
VALENTINE      CLOUDY    24  15  68 E8        30.45R WCI  15
AINSWORTH      CLOUDY    24  16  71 E7        30.44S WCI  16
ONEILL         CLOUDY    19  10  67 NE8       30.52R WCI   9
BROKEN BOW     CLOUDY    27  19  72 E6        30.44S WCI  20
IMPERIAL       CLOUDY    34  30  85 SE9       30.36F WCI  27
NORTH PLATTE   CLOUDY    31  24  75 E10       30.40S WCI  22
MCCOOK         CLOUDY    33  29  85 E9        30.41S WCI  25

...EASTERN NEBRASKA...

CITY           SKY/WX    TMP DP  RH WIND       PRES   REMARKS
NORFOLK        CLOUDY    15   5  64 N10       30.55S WCI   2
SO SIOUX CITY  CLOUDY    13   2  61 N12       30.60R WCI  -1
TEKAMAH        CLOUDY    13   4  67 N8        30.60S WCI   2
COLUMBUS       CLOUDY    18   1  49 N10       30.57R WCI   6
ALBION         CLOUDY    19  10  67 N9        30.53S WCI   9
OMAHA EPPLEY   CLOUDY    16   5  62 N13       30.60R WCI   2
OFFUTT AFB     MOCLDY    17   5  58 N10       30.59R WCI   5
MILLARD        CLOUDY    19   0  44 N8        30.59R WCI   8
LINCOLN        CLOUDY    20  12  71 NE16G24   30.58R WCI   6
NEBRASKA CITY  PTCLDY    21   7  54 N13G21    30.55R WCI   9
BEATRICE       CLEAR     23  13  65 NE10      30.54S WCI  12
FALLS CITY     CLEAR     24  11  57 N10       30.54R WCI  14

...NORTHERN KANSAS...

CITY           SKY/WX    TMP DP  RH WIND       PRES   REMARKS
GOODLAND       CLOUDY    32  29  88 E14       30.34F WCI  22
HILL CITY      CLOUDY    35  27  72 E10       30.45R WCI  27
NORTON         CLOUDY    34  27  75 E9        30.44R WCI  26
PHILLIPSBURG   CLOUDY    34  27  75 NE12      30.48R WCI  25
SMITH CENTER   CLOUDY    28  25  86 NE13      30.50R WCI  18
BELOIT         CLOUDY    28  21  74 NE13      30.51S WCI  18
HAYS           CLOUDY    36  21  55 E12       30.45R WCI  27
RUSSELL        CLOUDY    34  26  72 NE10      30.45R WCI  26
CONCORDIA      CLOUDY    28  17  63 N12       30.52R WCI  18
SALINA         MOCLDY    35  22  58 NE10      30.51R WCI  27
TOPEKA         CLEAR     31  13  47 N14       30.52R WCI  21



USA.gov is the U.S. government's official web portal to all federal, state and local government web resources and services.